Theta_e
304 306 307 308 309 310 311 311 312 314 312 311 311 309 307 303 295 291 291 291 291 291 291 291 291 291 291 291 291 291 291 290 290 290 290 289 289 289 288 288 287 287
304 305 306 306 307 308 309 309 311 313 312 311 310 308 306 301 293 290 291 290 290 291 291 291 291 291 291 291 291 290 290 290 289 289 288 288 288 287 287 287 286 286
304 305 306 306 307 307 307 307 308 309 309 307 306 306 304 298 291 290 290 290 290 290 290 290 290 290 290 290 290 289 289 289 288 288 287 287 287 286 286 286 286 285
303 304 305 305 306 306 305 305 305 305 305 303 302 302 300 294 290 290 290 289 290 290 290 290 290 289 289 289 289 288 288 288 287 287 286 286 286 286 286 285 285 285
303 303 303 304 304 303 302 302 303 304 303 301 299 298 295 291 290 290 289 289 289 289 289 289 289 289 288 288 288 287 287 287 286 286 286 286 285 285 285 285 285 285
301 302 302 304 304 303 302 302 303 303 302 300 298 295 292 290 290 289 289 289 289 289 289 288 288 288 287 287 287 287 287 286 286 285 285 286 285 285 285 285 285 285
300 301 302 302 302 302 302 302 301 300 299 297 295 292 290 290 290 289 289 289 288 288 288 288 288 287 287 287 287 286 286 286 286 285 285 285 285 285 285 285 285 285
301 302 301 300 300 300 300 299 298 297 296 294 292 290 290 289 289 289 289 288 288 288 288 287 287 287 287 286 286 286 286 286 285 285 285 285 285 285 285 285 285 285
299 300 300 298 298 298 298 299 298 295 294 292 290 289 289 289 289 289 288 288 288 288 287 287 287 286 286 286 286 286 286 285 285 285 285 285 285 285 285 285 285 285
297 297 298 296 296 296 297 299 298 295 293 291 289 289 289 288 288 288 288 288 288 287 287 287 286 286 286 286 286 286 285 285 285 285 285 285 285 285 285 285 285 284
296 296 296 295 295 295 296 297 296 295 292 290 288 288 288 288 288 288 288 287 287 287 287 286 286 286 286 286 286 285 285 285 285 285 285 285 285 285 285 285 285 284
294 294 294 295 295 294 294 294 294 293 292 289 288 288 288 287 287 287 287 287 287 287 287 286 286 286 286 286 286 285 285 285 285 285 285 285 284 285 285 284 284 284
293 292 293 294 294 293 293 293 293 292 291 289 288 287 287 287 287 287 287 287 287 287 286 286 286 286 286 286 285 285 285 285 284 284 284 284 284 284 284 284 284 284
292 292 292 293 293 292 292 291 291 290 289 288 288 287 287 287 287 287 287 287 286 286 286 286 286 286 286 285 285 285 285 284 284 284 284 284 284 284 284 284 284 284
293 292 292 291 291 291 290 289 289 288 288 287 287 287 287 287 287 287 287 287 286 286 286 286 286 286 286 285 285 285 285 284 284 284 284 284 284 284 284 284 284 284
292 293 292 291 290 290 290 289 288 287 287 287 286 286 287 287 287 286 286 286 286 286 286 286 285 285 285 285 285 285 285 285 284 284 284 284 285 284 284 284 284 285
291 292 292 292 291 290 289 288 288 287 286 286 286 286 286 286 286 286 286 286 286 286 286 285 285 285 285 285 285 285 285 285 284 284 285 286 285 284 284 284 285 286
291 290 291 291 291 290 289 288 287 287 286 285 285 285 285 285 285 285 286 286 285 285 285 285 285 285 285 285 285 285 285 284 284 285 286 287 286 284 283 284 285 287
290 290 289 290 290 290 289 287 286 286 285 285 285 285 285 284 285 285 285 285 285 285 285 285 285 285 285 285 285 285 285 284 285 287 288 288 286 284 283 283 284 287
289 289 289 289 289 288 287 286 286 285 285 285 285 285 284 284 284 284 284 284 284 285 285 285 285 285 285 285 285 285 284 284 286 288 289 288 286 284 283 282 284 285
289 288 288 287 287 286 285 285 285 285 285 284 284 284 284 284 284 284 284 284 284 284 284 285 285 285 285 285 285 284 284 286 288 289 289 288 287 285 284 283 284 284
289 288 287 287 286 285 285 284 284 284 284 284 284 283 283 283 283 283 283 283 283 284 284 284 284 284 284 285 285 284 285 287 289 289 289 288 288 287 286 285 285 284
289 289 288 287 286 286 285 285 284 284 284 284 284 283 283 282 282 282 282 282 283 283 283 283 283 284 284 284 284 285 287 289 289 289 288 288 288 288 288 287 286 285
289 288 288 287 287 286 286 285 285 285 284 284 284 283 283 283 282 282 282 282 282 283 283 283 283 284 284 284 285 287 289 290 289 288 287 287 287 287 288 288 287 286
289 289 288 288 287 286 286 286 285 285 285 285 284 284 284 284 284 283 283 283 283 283 283 283 283 284 284 284 286 288 289 290 289 287 286 285 285 286 286 286 286 285
289 289 288 288 288 287 286 286 286 286 286 286 286 286 286 285 284 284 283 283 283 283 284 283 283 283 284 285 287 289 290 290 288 286 285 285 285 284 284 284 284 284
Wind_Speed
33 33 33 33 33 31 31 33 34 34 36 35 34 34 35 34 34 35 34 33 32 31 31 31 30 30 30 30 29 29 29 29 28 27 26 25 25 24 23 21 20 19
33 33 33 33 32 31 32 33 34 35 36 35 34 35 36 35 36 36 34 33 33 32 32 31 31 31 30 30 30 30 30 29 28 27 26 25 24 23 22 21 19 18
33 33 34 33 32 31 32 34 35 36 37 36 36 37 37 37 37 36 35 34 33 33 32 32 31 31 30 30 30 29 29 28 27 26 25 24 22 21 21 19 19 17
34 34 34 33 31 31 32 34 35 36 37 37 37 38 38 39 38 37 35 34 33 33 32 32 31 30 30 29 28 28 27 26 25 25 24 22 21 20 19 18 17 16
35 35 34 33 31 31 32 34 35 35 36 37 37 38 39 40 39 37 36 35 34 33 32 32 31 30 29 28 27 26 25 25 24 24 23 22 21 19 18 17 16 14
35 35 35 33 32 32 33 35 36 36 36 37 38 39 40 40 39 38 37 36 34 33 33 32 31 30 29 28 26 25 24 23 23 23 22 21 20 18 17 15 14 13
36 36 35 34 33 34 35 35 36 36 37 38 39 41 41 40 40 38 37 36 35 34 33 32 31 30 28 27 26 24 23 22 22 22 20 19 18 17 16 14 13 12
37 37 36 35 35 35 35 36 36 36 37 38 40 41 41 41 40 39 37 36 35 34 33 32 31 29 28 27 25 24 23 22 22 20 19 18 16 15 15 14 13 12
36 37 37 36 36 36 36 36 36 36 37 39 41 42 41 40 40 39 38 36 35 34 33 32 30 29 28 26 24 24 23 22 21 20 18 17 16 15 14 14 14 13
36 36 36 36 36 36 36 36 35 36 37 40 41 41 41 40 39 39 38 37 36 35 33 32 31 29 27 26 25 24 23 22 21 20 18 17 15 14 14 14 14 14
36 36 36 36 36 36 36 36 36 36 38 40 41 40 40 40 40 39 38 37 36 35 34 33 31 29 27 26 26 25 24 22 21 19 18 17 16 15 14 14 14 14
36 35 35 36 36 36 36 36 36 37 38 40 41 41 40 40 40 39 38 37 36 35 34 33 31 29 28 27 26 26 24 23 21 20 19 17 16 15 15 14 14 15
35 34 35 35 35 35 35 36 36 37 38 40 41 41 40 40 40 40 39 38 37 36 34 32 31 30 29 28 28 27 25 23 22 20 19 18 17 16 16 15 16 16
34 33 33 34 34 34 34 35 36 37 38 39 40 41 41 41 41 41 39 38 37 36 34 33 32 31 30 30 29 27 25 23 22 21 20 19 18 17 17 17 18 18
33 33 33 32 32 33 34 34 35 36 37 38 39 40 40 41 41 41 40 39 37 36 35 34 33 32 31 30 29 27 25 24 22 21 20 19 18 18 19 19 19 19
33 34 33 33 33 33 34 34 35 35 36 37 38 40 40 40 41 40 40 39 38 36 35 34 33 32 31 30 28 26 25 24 23 21 20 19 19 21 22 21 20 19
32 33 34 34 34 34 34 34 35 35 36 38 38 39 39 39 40 40 39 39 38 37 36 35 34 32 31 30 28 26 24 23 22 21 20 20 21 23 24 24 22 21
32 33 34 34 34 34 34 35 35 36 36 36 37 38 38 38 38 39 39 38 37 36 36 35 33 32 31 29 27 25 24 23 22 21 21 22 23 26 27 26 24 23
31 32 32 33 34 34 35 35 35 35 35 35 36 36 36 37 37 37 37 36 36 36 35 34 33 32 30 28 26 25 24 23 23 23 23 23 25 27 29 28 27 27
29 30 31 31 32 32 33 34 35 35 34 34 35 35 36 36 36 36 36 36 35 34 34 33 32 31 29 27 26 25 24 24 25 24 24 25 27 28 29 30 31 31
27 27 28 28 28 28 29 30 31 31 32 33 34 34 35 35 35 35 35 34 34 34 33 33 32 31 28 27 26 25 25 25 25 25 25 27 29 30 31 32 34 35
27 27 27 27 27 27 27 27 28 29 30 30 30 30 30 31 31 32 33 33 32 32 32 32 32 30 27 26 25 25 25 25 25 26 28 30 32 33 34 35 37 38
28 28 28 28 28 28 28 28 28 28 28 28 27 26 26 26 27 28 29 29 29 29 30 30 29 27 26 25 26 25 25 25 26 28 30 33 34 35 36 38 39 41
28 28 28 28 28 28 28 28 28 27 27 27 26 25 24 24 24 24 24 25 26 27 27 26 25 25 25 26 25 24 25 27 28 29 32 34 36 37 39 40 42 44
26 26 27 27 28 28 27 27 26 26 25 24 24 24 24 24 24 23 24 23 23 23 23 23 25 26 26 25 24 24 26 29 30 30 31 34 35 37 40 41 43 45
25 25 26 26 27 26 26 25 24 24 23 23 24 23 23 23 23 24 24 24 23 23 24 25 26 26 25 25 25 27 29 31 31 31 32 34 35 36 38 40 41 43
Wind_Direction
212 213 213 209 206 205 205 203 202 201 201 199 202 203 198 195 193 190 189 188 187 188 186 184 183 182 182 181 182 184 185 185 185 184 182 182 180 176 174 173 171 169
213 214 211 207 206 207 207 206 204 203 202 201 204 204 199 195 192 190 189 189 188 188 186 185 184 183 183 183 184 186 186 185 183 181 180 178 175 172 170 169 168 169
213 213 209 208 209 210 211 208 205 203 203 202 203 202 197 193 192 190 190 190 189 188 186 185 185 184 185 185 185 187 186 184 181 179 178 176 173 171 169 169 168 168
212 211 210 210 213 215 214 210 206 204 204 203 201 199 195 192 191 191 190 190 190 189 187 186 186 186 186 186 187 187 186 184 182 179 178 176 173 172 170 170 172 170
211 211 211 213 215 216 214 210 207 207 207 205 200 196 194 192 192 192 191 191 190 190 189 188 187 187 188 188 188 188 186 185 184 181 180 177 174 175 175 174 176 176
211 211 212 214 216 216 214 211 209 208 208 206 201 195 194 194 194 193 193 192 191 191 191 190 189 189 189 189 190 190 189 189 188 185 185 182 177 177 179 179 182 183
211 212 212 214 215 215 214 212 210 209 207 205 201 197 195 195 195 194 194 194 193 193 193 192 192 191 191 192 192 192 192 194 193 190 190 189 183 181 182 184 188 190
212 213 213 213 213 214 214 212 210 209 207 204 201 198 197 197 197 196 195 195 195 195 195 195 194 193 193 194 194 195 196 198 197 195 195 195 192 190 190 191 195 199
213 213 212 212 212 212 213 213 212 210 208 206 203 200 199 198 198 197 197 197 197 197 197 197 197 196 196 196 196 198 200 201 202 201 201 202 201 201 201 201 204 207
212 212 212 212 211 211 212 212 213 211 209 207 204 202 200 198 198 199 198 198 198 199 199 198 199 198 197 198 200 202 204 205 207 207 206 208 210 212 213 214 216 218
211 211 211 211 211 211 211 212 212 211 210 207 205 203 201 199 198 199 199 200 200 201 201 201 201 200 200 202 203 206 208 209 211 212 211 213 217 221 224 226 228 230
209 210 211 211 211 211 212 212 211 211 210 208 206 204 202 200 199 200 201 202 203 203 203 203 202 202 204 205 207 209 210 212 214 215 216 218 222 226 231 235 237 239
209 209 211 212 212 212 212 212 212 212 211 209 207 205 203 202 201 201 202 203 204 205 205 205 205 205 207 209 211 213 213 214 216 218 220 223 226 230 234 239 242 244
208 210 211 212 212 212 212 212 211 211 210 209 208 206 205 204 203 203 204 204 206 206 206 207 207 207 209 211 213 214 216 218 219 221 224 226 229 234 237 243 247 248
208 210 211 211 211 211 212 212 211 210 210 209 208 207 206 206 205 205 205 205 205 206 207 209 209 210 212 213 215 215 217 220 222 224 227 230 235 239 242 245 247 251
206 208 210 210 211 211 212 212 210 210 210 209 209 209 208 207 206 206 206 207 206 207 208 209 210 212 214 216 217 218 220 223 225 227 230 236 242 245 246 246 248 254
204 205 207 209 210 211 211 211 211 211 210 210 209 208 208 207 206 207 208 209 208 208 209 210 211 214 216 218 219 220 223 225 227 230 235 242 248 248 248 248 250 256
203 202 203 206 208 209 210 210 210 209 209 208 208 208 208 207 208 208 209 209 209 210 210 212 214 215 217 218 219 221 225 227 229 233 239 245 250 251 251 250 253 257
202 201 201 203 206 208 208 208 207 206 207 208 208 208 209 208 208 209 210 210 211 211 212 214 215 217 218 219 221 224 226 227 231 237 243 247 251 254 254 252 255 260
202 201 201 203 205 205 204 204 204 205 206 208 209 209 209 209 209 210 211 212 213 213 214 215 218 219 219 220 222 226 227 229 235 243 247 250 253 256 257 256 259 262
200 200 200 201 201 200 200 201 202 203 204 207 209 210 210 211 210 211 212 213 214 215 216 217 220 220 219 220 224 225 226 232 241 248 251 253 255 257 258 259 261 262
200 199 198 199 198 199 199 200 201 202 204 206 207 209 211 212 211 212 213 213 214 215 216 218 220 219 218 221 223 224 228 237 246 252 254 256 256 257 258 259 261 262
199 198 197 197 197 198 199 200 202 204 206 207 207 207 210 212 213 214 215 215 215 215 217 219 220 219 220 222 223 225 234 243 249 253 256 258 259 259 259 261 262 262
198 197 196 196 197 198 199 199 201 203 206 207 208 209 211 214 218 220 220 220 221 221 223 225 225 225 223 223 225 232 243 250 253 254 255 256 259 261 262 263 263 263
198 198 198 198 199 199 199 199 200 202 205 207 210 213 216 219 222 225 227 228 229 230 231 232 232 230 227 227 232 242 251 255 254 251 252 254 257 261 263 264 263 263
199 199 200 200 200 200 200 201 201 203 205 209 212 216 219 221 223 224 226 228 229 230 230 231 231 232 232 237 246 254 258 258 253 249 250 254 257 259 262 263 263 263